{"data":{"norad_id":40128,"epoch":"2026-09-18T15:52:21.412416Z","epoch_age_seconds":173191,"freshness":"STALE","line1":"1 40128U 14050A   26261.66135894  .00000005  00000+0  00000+0 0  9997","line2":"2 40128  48.7780 269.5934 1687129 183.0003 175.8597  1.85519745 80058","mean_motion":1.85519745,"eccentricity":0.1687129,"inclination_deg":48.778,"raan_deg":269.5934,"arg_perigee_deg":183.0003,"mean_anomaly_deg":175.8597,"bstar":0,"rev_number":8005,"period_min":776.19770337653,"perigee_km":16879.171659808,"apogee_km":26319.491352465,"semimajor_km":27977.468506136,"source":"CELESTRAK","updated_at":"2026-09-20T09:00:46.492144Z"}}